DECAYED

STARLINK-3047, 49174 (Decayed)

Orbit data source: Space-Track

STARLINK-3047, 49174 was a payload satellite owned by SpaceX/Seattle (US) in LEO that was launched on Tue, 14 Sep 2021 UTC via an FALCON 9 launch vehicle from the Air Force Western Test Range (AFWTR). Payload-class satellites include a variety of spacecraft equipped with specific instruments for various scientific and technological missions. These include communications satellites like Starlink; space stations such as the ISS; scientific satellites like the Hubble; Earth observation satellites from companies like Planet Labs, Umbra, and HawkEye 360; GPS; miniature CubeSats for education and research; and military/defense satellites.

Not visible in the next 10 days
Identifier
49174, 2021-082AW
Orbit
Decayed
Country
Flag of USUS
Related business
Manufacturer
SpaceX/Seattle
Mission
Decayed Commercial Communications
Bus & Motor
STARLINK, Unknown motor
Mass
297 kg wet, ~275 kg dry
Launch date (UTC)
2021-09-14 (5 years ago)
Launch vehicle
FALCON 9
Launch site
Air Force Western Test Range (AFWTR)
Object type
Payload
Rocket body
Debris
Shape & HBR
Box + 1 Pan, 10.1 m
Radar Cross Section
13.562 m², Large (>1 m²)

Expand to show TLE details & history
Last TLE update: 7 months ago

TLE from 7 months ago
0 STARLINK-3047
1 49174U 21082AW  25302.67357160  .06384653  43255-5  11967-2 0  9990
2 49174  69.9497 167.3418 0010648 227.7305 132.3019 16.31705443229923
Epoch: 2025-10-29T16:09Z
TLE epoch observation values (Epoch: 2025-10-29T16:09:56.586Z)
Latitude
-0.00006°
Longitude
-113.38733°
Altitude
195.233 km
Speed
7.787 km/s
True Right ascension
11h 09m 22s
True Declination
0° 00' 00"
Sunlit
Object was in daylight at epoch
Visualization orbit readout
Latitude
Unknown
Longitude
Unknown
Altitude
Unknown
Speed
Unknown
Apparent Right ascension
Unknown
Apparent Declination
Unknown
Sunlit
N/A
Visualization observer readout
Local Sidereal Time
18:13:03
Azimuth
Unknown
Elevation
Unknown
Doppler factor
Unknown
Orbital elements
Apogee altitude
192.783 km
Perigee altitude
178.805 km
Semi-major axis
6,563.931 km
Eccentricity
0.00106
Inclination
69.9497°
RAAN
167.3418°
Arg. of periapsis
227.7305°
True anomaly
132.39206°
Mean anomaly
132.3019°
Eccentric anomaly
132.34699°
Mean motion
4.08129 °/min
Orbital period
88.21 mins
BSTAR
0.0011967
Loading maneuver chart data...
Computing Atmospheric mass density...
Loading historical data...
Loading historical data...
Loading historical data...
Loading historical data...
Loading historical data...
Loading historical data...
Loading historical data...

Documentation

Showing up to 5 results
|